Weather History for KBOW - June, 2013

Change the Weather History Date:

Tuesday, June 11, 2013

  Actual Average Record
Temperature  
Mean Temperature 79 °F -  
Max Temperature 87 °F 91 °F - (-1)
Min Temperature 71 °F 71 °F - (-1)
Cooling Degree Days 14    
Growing Degree Days 29 (Base 50)    
Moisture  
Dew Point 71 °F    
Average Humidity 82    
Maximum Humidity 100    
Minimum Humidity 55    
Precipitation  
Precipitation 0.00 in - - ()
Sea Level Pressure  
Sea Level Pressure 30.08 in    
Wind  
Wind Speed 2 mph (NNE)    
Max Wind Speed 16 mph    
Max Gust Speed 18 mph    
Visibility 8 miles    
Events Rain , Thunderstorm    
Averages and records for this station are not official NWS values.
T = Trace of Precipitation, MM = Missing Value Source: NWS Daily Summary

Daily Weather History Graph

Daily Weather History Graph

Search for Another Location

Airport or City:

Trip Planner

Search our weather history database for the weather conditions in past years. The results will help you decide how hot, cold, wet, or windy it might be!

Date:

Astronomy

Jun. 11, 2013 Rise Set
Actual Time 6:30 AM EDT 8:23 PM EDT
Civil Twilight 6:03 AM EDT 8:50 PM EDT
Nautical Twilight 5:31 AM EDT 9:22 PM EDT
Astronomical Twilight 4:57 AM EDT 9:56 PM EDT
Moon 9:02 AM EDT (6/11) 10:37 PM EDT (6/11)
Length of Visible Light 14h 46m
Length of Day
13h 53m
Waxing Crescent, 8% of the Moon is Illuminated
Jun 11
Waxing Crescent
Jun 16
First Quarter
Jun 23
Full
Jun 30
Last Quarter
Jul 8
New

Hourly Weather History & Observations

Time (EDT) Temp. Heat Index Dew Point Humidity Pressure Visibility Wind Dir Wind Speed Gust Speed Precip Events Conditions
12:15 AM 73.4 °F - - N/A% 30.10 in 9.0 mi Calm Calm - N/A   Clear
12:35 AM 73.4 °F - - N/A% 30.10 in 9.0 mi NNE 3.5 mph - N/A   Clear
12:55 AM 73.4 °F - - N/A% 30.10 in 10.0 mi Calm Calm - N/A   Clear
1:15 AM 73.4 °F - - N/A% 30.09 in 10.0 mi Calm Calm - N/A   Clear
1:35 AM 73.4 °F - - N/A% 30.09 in 10.0 mi Calm Calm - N/A   Clear
1:55 AM 73.4 °F - 73.4 °F 100% 30.08 in 10.0 mi Calm Calm - N/A   Clear
2:15 AM 73.4 °F - 73.4 °F 100% 30.08 in 8.0 mi Calm Calm - N/A   Clear
2:35 AM 73.4 °F - - N/A% 30.08 in 8.0 mi Calm Calm - N/A   Clear
2:55 AM 71.6 °F - - N/A% 30.07 in 6.0 mi Calm Calm - N/A   Haze
3:15 AM 73.4 °F - - N/A% 30.07 in 5.0 mi Calm Calm - N/A   Haze
3:35 AM 73.4 °F - - N/A% 30.07 in 6.0 mi Calm Calm - N/A   Haze
3:55 AM 73.4 °F - - N/A% 30.07 in 7.0 mi Calm Calm - N/A   Clear
4:55 AM 71.6 °F - - N/A% 30.07 in 5.0 mi Calm Calm - N/A   Haze
5:15 AM 71.6 °F - - N/A% 30.08 in 6.0 mi Calm Calm - N/A   Haze
5:35 AM 71.6 °F - - N/A% 30.08 in 7.0 mi Calm Calm - N/A   Clear
5:55 AM 71.6 °F - - N/A% 30.08 in 5.0 mi Calm Calm - N/A   Haze
6:15 AM 71.6 °F - - N/A% 30.08 in 4.0 mi Calm Calm - N/A   Haze
6:35 AM 71.6 °F - - N/A% 30.08 in 7.0 mi Calm Calm - N/A   Clear
6:55 AM 71.6 °F - - N/A% 30.08 in 2.0 mi Calm Calm - N/A   Clear
7:15 AM 71.6 °F - - N/A% 30.09 in 1.0 mi Calm Calm - N/A   Clear
7:47 AM 73.4 °F - - N/A% 30.09 in 5.0 mi Calm Calm - N/A   Haze
8:47 AM 75.2 °F - - N/A% 30.11 in 6.0 mi Calm Calm - N/A   Haze
9:55 AM 80.6 °F 86.2 °F 75.2 °F 84% 30.11 in 7.0 mi South 5.8 mph - N/A   Mostly Cloudy
10:12 AM 80.6 °F 86.2 °F 75.2 °F 84% 30.01 in 5.0 mi SSW 3.5 mph - N/A   Haze
10:47 AM 82.4 °F 88.2 °F 73.4 °F 74% 30.11 in 8.0 mi Calm Calm - N/A   Mostly Cloudy
11:50 AM 86.0 °F 91.8 °F 71.6 °F 62% 30.11 in 8.0 mi SE 5.8 mph - N/A   Mostly Cloudy
12:54 PM 87.8 °F 92.6 °F 69.8 °F 55% 30.10 in 8.0 mi Calm Calm - N/A   Scattered Clouds
2:50 PM 86.0 °F 89.4 °F 68.0 °F 55% 30.07 in 9.0 mi NW 16.1 mph - N/A   Mostly Cloudy
3:35 PM 80.6 °F 83.9 °F 69.8 °F 70% 30.08 in 7.0 mi NW 9.2 mph 18.4 mph N/A   Clear
3:55 PM 78.8 °F - 69.8 °F 74% 30.06 in 8.0 mi NW 9.2 mph - N/A Thunderstorm Clear
4:15 PM 78.8 °F - 69.8 °F 74% 30.07 in 10.0 mi NNW 6.9 mph - N/A Thunderstorm Clear
4:35 PM 78.8 °F - 69.8 °F 74% 30.07 in 8.0 mi NNW 4.6 mph - N/A Rain Light Rain
4:55 PM 78.8 °F - 69.8 °F 74% 30.08 in 8.0 mi North 5.8 mph - N/A   Scattered Clouds
5:15 PM 78.8 °F - 69.8 °F 74% 30.10 in 9.0 mi East 11.5 mph - N/A   Mostly Cloudy
5:35 PM 78.8 °F - 68.0 °F 69% 30.10 in 9.0 mi East 5.8 mph - N/A   Mostly Cloudy
5:55 PM 78.8 °F - 68.0 °F 69% 30.08 in 9.0 mi NNE 3.5 mph - N/A   Mostly Cloudy
6:15 PM 80.6 °F 83.9 °F 69.8 °F 70% 30.09 in 9.0 mi NE 10.4 mph - N/A Thunderstorm Partly Cloudy
6:35 PM 78.8 °F - 69.8 °F 74% 30.08 in 9.0 mi ENE 13.8 mph - N/A   Partly Cloudy
6:55 PM 77.0 °F - 69.8 °F 78% 30.06 in 9.0 mi East 5.8 mph - N/A   Clear
7:15 PM 77.0 °F - 69.8 °F 78% 30.04 in 10.0 mi WNW 3.5 mph - N/A   Clear
7:35 PM 77.0 °F - 71.6 °F 83% 30.02 in 8.0 mi SW 8.1 mph - N/A   Clear
7:55 PM 75.2 °F - 69.8 °F 83% 30.02 in 9.0 mi SW 4.6 mph - N/A   Clear
8:15 PM 77.0 °F - 69.8 °F 78% 30.05 in 9.0 mi NE 6.9 mph - N/A   Clear
8:35 PM 75.2 °F - 71.6 °F 89% 30.06 in 10.0 mi Calm Calm - N/A Rain Light Rain
8:55 PM 75.2 °F - 71.6 °F 89% 30.07 in 10.0 mi Calm Calm - N/A   Clear
9:15 PM 73.4 °F - 71.6 °F 94% 30.08 in 10.0 mi ENE 5.8 mph - N/A   Clear
9:35 PM 73.4 °F - 73.4 °F 100% 30.06 in 10.0 mi Calm Calm - N/A   Clear
9:55 PM 73.4 °F - 73.4 °F 100% 30.07 in 10.0 mi Calm Calm - N/A   Clear
10:15 PM 73.4 °F - 73.4 °F 100% 30.07 in 10.0 mi Calm Calm - N/A   Clear
10:35 PM 71.6 °F - 71.6 °F 100% 30.07 in 10.0 mi Calm Calm - N/A   Clear
10:55 PM 71.6 °F - 71.6 °F 100% 30.07 in 10.0 mi Calm Calm - N/A   Clear
11:15 PM 71.6 °F - 71.6 °F 100% 30.07 in 10.0 mi Calm Calm - N/A   Clear
11:35 PM 73.4 °F - 69.8 °F 88% 30.08 in 10.0 mi Calm Calm - N/A   Clear
11:55 PM 73.4 °F - 69.8 °F 88% 30.09 in 10.0 mi Calm Calm - N/A   Clear